Flag Weather past 2 weeks in Garland, Texas, U.S.A.

Now
61 °F

Passing clouds.


Feels Like: 61 °F
Forecast: 58 / 67 °F
Wind: 8 mph from Southeast

Location: Mesquite Metro Airport

Current Time: Nov 20, 2014 at 8:54:30 PM

Latest Report: Nov 20, 2014 at 7:47 PM


Visibility: 10 mi

Pressure: 30.04 "Hg

Humidity: 77%

Dew point: 54 °F

Location of GarlandLocation

Historic Weather in Garland — Graph

°F

Garland temperature yesterday

Maximum temperature yesterday: 64 °F (at 2:50 PM)
Minimum temperature yesterday: 28 °F (at 6:50 AM)
Average temperature yesterday: 44 °F

Past Weeks' High & Low Weather Summary

 TemperatureHumidityPressure
High77 °F (Nov 10, 1:50 PM)100% (Nov 6, 6:50 AM)30.61 "Hg (Nov 6, 6:50 AM)
Low21 °F (Nov 18, 6:50 AM)21% (Nov 18, 2:50 PM)29.64 "Hg (Nov 10, 3:50 PM)
Average44 °F64%30.20 "Hg
* Reported Nov 5 7:50 PM — Nov 20 7:47 PM, Garland, Weather by CustomWeather, © 2014

Note: Actual official high and low records may vary slightly from our data, if they occured in-between our weather recording intervals... More about our weather records

Advertising

Garland weather history for previous 24 hours

 ConditionsComfort  
Time TempWeatherWind HumidityBarometerVisibility
7:47 PM
Nov 20
61 °FPassing clouds.8 mph77%30.04 "Hg10 mi
6:47 PM63 °FClear.6 mph73%30.03 "Hg10 mi
3:55 PM70 °FScattered clouds.14 mph53%30.00 "Hg10 mi
2:50 PM70 °FBroken clouds.14 mph53%30.01 "Hg10 mi
1:50 PM72 °FScattered clouds.15 mph44%30.03 "Hg10 mi
12:50 PM70 °FScattered clouds.12 mph46%30.06 "Hg10 mi
11:50 AM66 °FSunny.12 mph52%30.10 "Hg10 mi
10:50 AM63 °FSunny.12 mph59%30.14 "Hg10 mi
9:50 AM55 °FSunny.6 mph72%30.16 "Hg10 mi
8:50 AM46 °FSunny.5 mph100%30.15 "Hg10 mi
7:50 AM41 °FSunny.3 mph100%30.14 "Hg10 mi
6:50 AM39 °FClear.3 mph100%30.12 "Hg10 mi
4:35 AM42 °FClear.6 mph94%30.12 "Hg10 mi
4:15 AM42 °FClear.5 mph93%30.12 "Hg10 mi
3:55 AM42 °FClear.3 mph95%30.12 "Hg10 mi
3:35 AM42 °FClear.5 mph93%30.13 "Hg10 mi
3:15 AM42 °FClear.5 mph93%30.13 "Hg10 mi
2:55 AM42 °FClear.6 mph95%30.13 "Hg10 mi
2:35 AM40 °FClear.6 mph95%30.13 "Hg10 mi
2:15 AM41 °FClear.5 mph94%30.13 "Hg10 mi
1:55 AM41 °FClear.3 mph93%30.14 "Hg10 mi
1:35 AM41 °FClear.No wind93%30.14 "Hg10 mi
1:15 AM42 °FClear.No wind91%30.14 "Hg10 mi
12:55 AM42 °FClear.No wind90%30.14 "Hg10 mi
12:35 AM44 °FClear.No wind87%30.14 "Hg10 mi
12:15 AM44 °FClear.5 mph86%30.14 "Hg10 mi
11:55 PM
Nov 19
45 °FClear.6 mph84%30.14 "Hg10 mi
11:35 PM45 °FClear.6 mph83%30.14 "Hg10 mi
11:15 PM45 °FClear.5 mph83%30.15 "Hg10 mi
10:55 PM45 °FClear.3 mph82%30.16 "Hg10 mi
10:35 PM44 °FClear.3 mph83%30.16 "Hg10 mi
10:15 PM44 °FClear.5 mph80%30.16 "Hg10 mi
9:55 PM46 °FClear.5 mph78%30.16 "Hg10 mi
9:15 PM46 °FClear.3 mph73%30.16 "Hg10 mi
8:55 PM47 °FClear.3 mph72%30.16 "Hg10 mi
Weather by CustomWeather, © 2014

See weather overviewHow to use our weather pages